Location: Nied?wied?
(53.3665°N, 14.8184°E)
Time: 02:01:48
(UTC+00:00)

Cosmos 1610 Rocket - Pass Details

Date: 03 March 2021
Orbit: 953 x 1002 km, 82.9° (Epoch: 11 April)

Event Time Altitude Azimuth Distance (km) Brightness Sun altitude
Rises 17:39:26 0° 177° (S) 3,642 7.5 -9.2°
Reaches altitude 10° 17:41:55 10° 175° (S) 2,705 6.8 -9.6°
Maximum altitude 17:48:03 66° 95° (E) 1,066 4.5 -10.5°
Drops below altitude 10° 17:54:17 10° 15° (NNE) 2,757 6.8 -11.5°
Sets 17:56:51 0° 13° (NNE) 3,717 7.5 -11.8°
